Regional Weather Roundup
Issued by NWS

Home | Current Version | Previous Version | Text Only | Print | Product List | Glossary Off
Versions: 1 2 3 4 5 6 7 8 9 10 11 12 13 14 15 16 17 18 19 20 21 22 23 24 25 26 27 28 29 30 31 32 33 34 35 36 37 38 39 40 41 42 43 44 45 46 47 48 49 50

247
ASUS44 KLIX 271401
RWRLA
LOUISIANA WEATHER ROUNDUP
NATIONAL WEATHER SERVICE NEW ORLEANS LA
800 AM CST TUE JAN 27 2015

NOTE: "FAIR" INDICATES FEW OR NO CLOUDS BELOW 12,000 FEET WITH NO
      SIGNIFICANT WEATHER AND/OR OBSTRUCTIONS TO VISIBILITY.
      SKY/WX - SKY CONDITION AND SIGNIFICANT WEATHER.
      TMP - AIR TEMPERATURE.    DP   - DEWPOINT TEMPERATURE.
      RH  - RELATIVE HUMIDITY.  PRES - PRESSURE.
      HX  - HEAT INDEX.         WCI  - WIND CHILL INDEX.

*  THESE STATIONS ARE NOT NWS OR FAA STATIONS AND ARE NOT UNDER
   NWS QUALITY CONTROL.

LAZ040-048-061>063-065-066-069-271500-
SOUTHEAST LOUISIANA

CITY           SKY/WX    TMP DP  RH WIND       PRES   REMARKS
N.O. AUDUBON   NOT AVBL
N.O. INTL ARPT MOSUNNY   50  43  77 W3        30.11R
N.O. LAKEFRONT SUNNY     54  46  74 W9        30.12R
N.O. DOWNTOWN* FAIR      50  39  66 CALM      30.12R
SLIDELL        SUNNY     49  42  77 CALM      30.10R
BATON ROUGE    SUNNY     44  41  89 CALM      30.11R
BOOTHVILLE     SUNNY     53  46  77 NW7       30.11R
BELLE CHASSE   MOSUNNY   51  42  71 CALM      30.11R
BOGALUSA*        N/A     40  36  87 CALM      30.11R
GALLIANO*      NOT AVBL
NEW ROADS*     NOT AVBL
GONZALES*      NOT AVBL
HAMMOND*       NOT AVBL
HOUMA*         NOT AVBL
PORT FOURCHON* SUNNY     57  52  82 W8        30.15R

$$

LAZ041-044-053-054-271500-
SOUTHWEST LOUISIANA

CITY           SKY/WX    TMP DP  RH WIND       PRES   REMARKS
LAKE CHARLES   CLEAR     47  43  86 CALM      30.12R
LAFAYETTE      SUNNY     50  45  83 W5        30.12R
PATTERSON      SUNNY     54  46  76 W6        30.12R
SALT POINT       N/A     54  50  86 W5        30.11R
NEW IBERIA     SUNNY     51  46  83 W5        30.12R
CHENAULT AIRPK NOT AVBL

$$

LAZ027-028-271500-
CENTRAL LOUISIANA

CITY           SKY/WX    TMP DP  RH WIND       PRES   REMARKS
FORT POLK      CLEAR     49  42  76 NW8       30.11R
ALEXANDRIA INT CLEAR     44  39  82 NW3       30.10R
ALEXANDRIA     CLEAR     42  39  89 CALM      30.11R

$$

LAZ001-002-271500-
NORTHWEST LOUISIANA

CITY           SKY/WX    TMP DP  RH WIND       PRES   REMARKS
SHREVEPORT     PTCLDY    41  38  89 CALM      30.12R
BARKSDALE AFB  CLEAR     38  35  90 N1        30.13R
DTN SHREVEPORT CLEAR     40  38  93 CALM      30.12R

$$

LAZ014-016-271500-
NORTHEAST LOUISIANA

CITY           SKY/WX    TMP DP  RH WIND       PRES   REMARKS
MONROE         CLEAR     46  38  73 N7        30.12R
TALLULAH       SUNNY     39  36  89 CALM      30.11R

$$




USA.gov is the U.S. government's official web portal to all federal, state and local government web resources and services.